Вернуться в каталог

COSMOS 970 DEB

АктивенLEO
NORAD 14511·DEBRIS·🇷🇺 Russia

Запущен Dec 21, 1977 с Baikonur Cosmodrome

Loading…

Ближайшие Пролёты (ближайшие 24 часа)

TLE

СвежийSource: Space-Track

Эпоха: Sep 14, 2026, 06:07 UTC

1 14511U 77121BJ  26257.25543524  .00000014  00000-0  20698-3 0  9995
2 14511  64.6774 259.0873 0133728 122.1205 255.0858 13.22436647120306

Отслеживайте COSMOS 970 DEB в реальном времени с AllMySat

Download on the App Store